Time,B instrument,Bx,By,Bz,sigma B,Ion instrument,Status,Tp_par,Tp_perp,carrot,r_sun,clat,clong,earth_he_angle,n_p,vp_x,vp_y,vp_z,vth_p_par,vth_p_perp
1980-06-29 00:01:03,1,-7.8,8.18,-2.1,0.658483,1,1,53618.0,42834.3,1696,0.63975328,6.0959911,190.47957,100.87801,15.5941,272.899,30.3978,5.68144,29.7518,26.5922
1980-06-29 00:02:24,1,-10.25,3.55,-4.2,0.264575,1,1,37513.3,45894.7,1696,0.63976109,6.0959129,190.46834,100.87849,15.942,261.549,6.49608,-2.22351,24.8857,27.5258
1980-06-29 00:03:45,1,-10.05,3.1,-4.6,0.180278,1,1,42793.8,41698.7,1696,0.63976896,6.0958357,190.45711,100.87898,15.5189,260.401,1.25324,-5.70761,26.5796,26.2373
1980-06-29 00:05:06,1,-9.525,2.875,-4.475,2.01137,1,1,38607.9,43688.6,1696,0.63978463,6.0956793,190.44637,100.87996,15.3108,261.596,-3.93203,-6.51067,25.2462,26.856
1980-06-29 00:06:27,1,-8.675,8.15,-2.9,0.253722,1,1,41829.4,43735.8,1696,0.63979244,6.095602,190.43121,100.88043,15.8457,266.094,16.8988,-0.450944,26.2784,26.8705
1980-06-29 00:07:48,1,-8.5,8.2,-2.3,0.0,1,1,39285.9,37756.3,1696,0.63980025,6.0955238,190.41998,100.88092,15.0089,266.14,18.6721,1.90404,25.4669,24.9662
1980-06-29 00:09:10,1,-9.14,7.94,-1.82,0.257682,1,1,37806.0,40217.9,1696,0.63981593,6.0953684,190.40924,100.8819,15.5742,265.076,17.5132,3.83411,24.9826,25.7672
1980-06-29 00:10:31,1,-8.35,5.5,-5.8,0.259808,1,1,36019.3,42532.4,1696,0.63982379,6.0952902,190.39801,100.88239,15.2597,263.979,11.4322,-6.33779,24.3851,26.4983
1980-06-29 00:11:51,1,-7.9,7.78,-4.38,0.301993,1,1,43799.0,44198.8,1696,0.6398316,6.0952129,190.38676,100.88286,15.3233,267.116,16.4523,-6.8872,26.8899,27.0124
1980-06-29 00:13:12,1,-8.45,7.675,-3.9,0.233184,1,1,34649.0,39197.7,1696,0.63984728,6.0950565,190.37212,100.88383,14.8356,265.842,16.4782,-4.8833,23.9168,25.4383
1980-06-29 00:14:33,1,-8.525,7.325,-3.9,0.136931,1,1,39106.1,41937.8,1696,0.63985509,6.0949793,190.36089,100.88432,14.8652,264.33,15.0899,-4.58922,25.4086,26.3124
1980-06-29 00:15:54,1,-8.45,7.35,-3.9,0.158114,1,1,35966.2,40169.7,1696,0.63986295,6.0949011,190.34966,100.88481,14.8612,266.142,16.8764,-5.68033,24.3672,25.7518
1980-06-29 00:17:15,1,-7.325,8.275,-4.475,0.332603,1,1,36536.8,42100.6,1696,0.63987857,6.0947456,190.3389,100.88577,14.879,267.654,17.3628,-6.06935,24.5597,26.3634
1980-06-29 00:18:36,1,-6.9,8.475,-5.0,0.742883,1,1,34104.9,40272.9,1696,0.63988644,6.0946674,190.32767,100.88626,14.2654,273.354,21.5315,-9.23844,23.7283,25.7848
1980-06-29 00:19:58,1,-6.92,8.92,-4.16,0.263818,1,1,36771.4,36860.2,1696,0.63989425,6.0945892,190.31644,100.88675,14.9113,269.947,21.5194,-5.0831,24.6384,24.6682
1980-06-29 00:21:19,1,-8.22,8.14,-3.58,0.376298,1,1,35833.2,37461.5,1696,0.63990992,6.0944338,190.30177,100.88771,14.0418,266.38,19.9911,-1.19483,24.3221,24.8685
1980-06-29 00:22:39,1,-8.4,7.8,-3.3,0.2,1,1,41281.8,42021.6,1696,0.63991773,6.0943565,190.29054,100.8882,15.1246,264.22,16.4349,-3.55996,26.1058,26.3387
1980-06-29 00:24:00,1,-9.525,6.125,-3.525,0.406971,1,1,32129.9,38851.8,1696,0.63993341,6.0942001,190.2798,100.88918,14.6806,263.434,11.5085,-4.32503,23.031,25.3258
1980-06-29 00:25:21,1,-9.4,6.575,-3.575,0.416833,1,1,38053.1,42843.0,1696,0.63994128,6.0941229,190.26857,100.88966,15.2345,262.747,12.0788,-3.10665,25.0641,26.5949
1980-06-29 00:26:42,1,-9.75,5.55,-4.0,0.339116,1,1,35921.6,42039.3,1696,0.63994908,6.0940447,190.25732,100.89014,14.5,260.594,9.50508,-5.64028,24.3521,26.3442
1980-06-29 00:28:04,1,-10.0,5.75,-3.3,0.259808,1,1,33656.8,43038.7,1696,0.63996476,6.0938892,190.24268,100.89111,15.6788,262.353,8.53325,-2.60473,23.5719,26.6555
1980-06-29 00:29:25,1,-9.74,5.98,-3.32,0.24,1,1,33872.2,40803.1,1696,0.63997257,6.093811,190.23145,100.8916,14.6566,261.837,9.22835,-2.23183,23.6472,25.954
1980-06-29 00:29:37,1,-9.55,6.0,-3.4,0.180278,1,1,35801.4,40059.9,1696,0.63997257,6.093811,190.23145,100.8916,15.2351,260.14,7.39738,-0.360045,24.3113,25.7166
1980-06-29 00:30:45,1,-10.0,5.75,-3.2,0.278388,1,1,38200.1,38899.2,1697,0.64001155,6.0955739,190.15634,100.82822,15.3504,261.765,9.1443,-1.73955,25.1125,25.3413
1980-06-29 00:32:05,1,-10.0,5.75,-3.0,0.193649,1,1,33285.1,41557.1,1696,0.63999605,6.0935774,190.20946,100.89305,15.376,260.371,8.89363,-0.661331,23.4414,26.1927
1980-06-29 00:35:01,-1,nan,nan,nan,nan,1,3,nan,nan,1696,0.6400196,6.0933437,190.18358,100.89452,nan,261.092,10.0554,-3.51325,nan,nan
1980-06-29 00:40:25,-1,nan,nan,nan,nan,1,3,nan,nan,1696,0.64005876,6.0929546,190.13522,100.89694,nan,259.437,5.29491,-0.827611,nan,nan
1980-06-29 00:45:49,-1,nan,nan,nan,nan,1,3,nan,nan,1696,0.64009792,6.0925655,190.09077,100.89937,nan,262.039,7.88978,-7.97321,nan,nan
1980-06-29 00:51:13,-1,nan,nan,nan,nan,1,3,nan,nan,1696,0.64014488,6.0920982,190.04289,100.90227,nan,259.801,9.21377,-5.3863,nan,nan
1980-06-29 00:56:37,-1,nan,nan,nan,nan,1,3,nan,nan,1696,0.64018404,6.0917091,189.99454,100.90469,nan,260.241,-4.54888,-3.94531,nan,nan
1980-06-29 01:02:01,-1,nan,nan,nan,nan,1,3,nan,nan,1696,0.64023101,6.0912418,189.95058,100.90761,nan,261.608,0.136525,-5.00773,nan,nan
1980-06-29 01:07:25,-1,nan,nan,nan,nan,1,3,nan,nan,1696,0.64027017,6.0908527,189.90221,100.91002,nan,262.454,14.502,1.6528,nan,nan
1980-06-29 01:12:49,-1,nan,nan,nan,nan,1,3,nan,nan,1696,0.64030927,6.0904636,189.85385,100.91245,nan,263.31,10.5309,-0.305883,nan,nan
1980-06-29 01:18:13,-1,nan,nan,nan,nan,1,3,nan,nan,1696,0.64035624,6.0899963,189.80597,100.91534,nan,263.664,11.2247,-0.368557,nan,nan
1980-06-29 01:23:37,-1,nan,nan,nan,nan,1,3,nan,nan,1696,0.64039534,6.0896072,189.76151,100.91776,nan,261.5,10.1243,-0.642388,nan,nan
1980-06-29 01:29:01,-1,nan,nan,nan,nan,1,3,nan,nan,1696,0.64044231,6.0891399,189.71362,100.92065,nan,260.815,6.25429,-2.4922,nan,nan
1980-06-29 01:34:25,-1,nan,nan,nan,nan,1,3,nan,nan,1696,0.64048147,6.0887499,189.66527,100.92308,nan,261.731,5.85395,-5.00314,nan,nan
1980-06-29 01:39:49,-1,nan,nan,nan,nan,1,3,nan,nan,1696,0.64052057,6.0883608,189.6208,100.92549,nan,263.799,9.14047,-5.3386,nan,nan
1980-06-29 01:45:13,-1,nan,nan,nan,nan,1,3,nan,nan,1696,0.64056754,6.0878935,189.57292,100.92839,nan,264.465,11.4343,-5.0156,nan,nan
1980-06-29 01:50:37,-1,nan,nan,nan,nan,1,3,nan,nan,1696,0.6406067,6.0875044,189.52457,100.93082,nan,263.389,11.403,-1.83549,nan,nan
1980-06-29 01:56:01,-1,nan,nan,nan,nan,1,3,nan,nan,1696,0.64065361,6.0870371,189.47668,100.93372,nan,260.37,4.04702,-1.69223,nan,nan
1980-06-29 02:01:25,-1,nan,nan,nan,nan,1,3,nan,nan,1696,0.64069277,6.086648,189.43222,100.93613,nan,262.678,11.1715,1.2368,nan,nan
1980-06-29 02:06:49,-1,nan,nan,nan,nan,1,3,nan,nan,1696,0.64073187,6.0862579,189.38385,100.93854,nan,260.369,9.13293,1.43922,nan,nan
1980-06-29 02:12:13,-1,nan,nan,nan,nan,1,3,nan,nan,1696,0.64077878,6.0857906,189.33595,100.94142,nan,264.344,11.0476,-0.377202,nan,nan
1980-06-29 02:17:37,-1,nan,nan,nan,nan,1,3,nan,nan,1696,0.64081788,6.0854006,189.29149,100.94383,nan,267.708,17.6596,0.789748,nan,nan
1980-06-29 02:23:01,-1,nan,nan,nan,nan,1,3,nan,nan,1696,0.64086479,6.0849333,189.24361,100.94673,nan,271.237,17.7867,-0.913865,nan,nan
1980-06-29 02:28:25,-1,nan,nan,nan,nan,1,3,nan,nan,1696,0.64090395,6.0845432,189.19522,100.94913,nan,269.309,19.8644,-0.353892,nan,nan
1980-06-29 02:33:49,-1,nan,nan,nan,nan,1,3,nan,nan,1696,0.64094305,6.0841541,189.15076,100.95154,nan,266.763,17.4844,-0.18585,nan,nan
1980-06-29 02:39:13,-1,nan,nan,nan,nan,1,3,nan,nan,1696,0.64098996,6.0836868,189.10287,100.95444,nan,264.444,17.3633,1.35113,nan,nan
1980-06-29 03:48:00,-1,nan,nan,nan,nan,1,3,nan,nan,1697,0.64155483,6.0797634,188.4389,100.92328,nan,267.715,6.98914,-8.60903,nan,nan
1980-06-29 03:49:21,1,-7.9,6.275,-5.1,0.178536,1,1,57876.0,39870.5,1697,0.64156538,6.0796552,188.42783,100.92392,17.7215,268.04,8.01974,-7.93097,30.9106,25.6557
1980-06-29 03:51:47,1,-8.25,5.075,-5.675,0.32596,1,1,55037.9,40516.6,1696,0.64154494,6.0781546,188.46902,100.98856,17.7277,265.839,7.41044,-7.79383,30.1432,25.8627
1980-06-29 03:52:03,1,-8.1,5.95,-5.4,0.65,1,1,50406.0,40218.9,1696,0.64156061,6.0779982,188.46608,100.98952,17.1985,265.479,6.66479,-8.96216,28.8469,25.7675
1980-06-29 03:53:25,1,-8.7,5.03333,-5.46667,0.343188,1,1,50074.9,42436.4,1696,0.64156842,6.07792,188.45483,100.98999,17.8049,266.272,4.2725,-8.97992,28.752,26.4684
1980-06-29 03:54:46,1,-9.1,2.625,-5.9,0.657172,1,1,45917.5,40787.5,1696,0.64157623,6.0778427,188.4436,100.99048,18.0804,264.861,-6.78993,-10.6835,27.5326,25.949
1980-06-29 03:56:07,1,-8.75,2.9,-6.3,0.342783,1,1,43218.0,42445.8,1696,0.64159185,6.0776863,188.43285,100.99144,17.4638,264.839,-4.06837,-10.8033,26.711,26.4713
1980-06-29 03:57:28,1,-8.625,6.625,-3.4,0.428661,1,1,46523.1,41469.7,1696,0.64159966,6.0776091,188.4216,100.99191,17.5122,264.207,8.4935,-5.65844,27.7136,26.1651
1980-06-29 03:58:49,-1,nan,nan,nan,nan,1,4,nan,nan,1696,0.64160746,6.0775309,188.40646,100.9924,nan,nan,nan,nan,nan,nan
1980-06-29 04:00:10,1,-9.475,4.8,-3.8,0.396074,1,1,54095.3,40984.6,1696,0.64162314,6.0773754,188.39571,100.99336,18.3112,262.729,4.25772,-2.10481,29.8839,26.0117
1980-06-29 04:01:31,1,-9.7,2.55,-4.6,0.295804,1,1,53187.0,40883.9,1696,0.64163095,6.0772972,188.38446,100.99384,18.4685,261.978,-3.90159,-5.14889,29.632,25.9797
1980-06-29 04:02:52,1,-9.625,3.075,-4.9,0.322102,1,1,56289.7,41988.6,1696,0.64163876,6.077219,188.37321,100.99431,18.6278,262.286,-2.13425,-6.14805,30.484,26.3284
1980-06-29 04:04:13,1,-9.3,3.325,-4.9,0.59739,1,1,50425.7,40812.3,1696,0.64165437,6.0770626,188.36246,100.99527,18.4276,261.379,-2.00885,-5.70795,28.8525,25.9569
1980-06-29 04:05:34,1,-9.075,1.55,-5.575,0.660492,1,1,50786.9,41682.7,1696,0.64166218,6.0769854,188.35121,100.99574,19.3643,265.414,-5.55523,-8.55165,28.9557,26.2323
1980-06-29 04:06:55,1,-9.0,0.95,-5.575,0.298957,1,1,52907.1,39547.0,1696,0.64166999,6.0769072,188.33607,100.99623,17.1843,265.275,-9.5747,-8.44043,29.5539,25.5514
1980-06-29 04:08:16,1,-8.65,0.3,-6.2,0.193649,1,1,56856.4,39959.6,1696,0.64168561,6.0767508,188.3253,100.99718,16.9204,266.637,-11.0347,-9.77784,30.6371,25.6843
1980-06-29 04:09:37,1,-8.025,1.35,-6.7,0.253722,1,1,58981.9,42679.6,1696,0.64169341,6.0766735,188.31407,100.99767,18.3332,267.409,-7.79252,-11.7347,31.2045,26.5441
1980-06-29 04:10:58,1,-7.75,-0.25,-6.9,0.380789,1,1,47102.7,39013.2,1696,0.64170122,6.0765953,188.30283,100.99814,18.0188,267.651,-11.0664,-14.0108,27.8857,25.3784
1980-06-29 04:12:19,1,-9.45,1.275,-5.325,0.162019,1,1,51971.7,42069.9,1696,0.64171684,6.0764389,188.29207,100.9991,18.8291,263.038,-7.41854,-6.78823,29.2915,26.3538
1980-06-29 04:13:40,1,-9.12,2.64,-5.2,1.35499,1,1,54393.1,46708.2,1696,0.64172465,6.0763617,188.28082,100.99957,16.8707,261.417,-46.6103,-28.3014,29.9661,27.7686
1980-06-29 04:15:00,1,-9.15,2.0,-5.5,0.4272,1,1,56195.8,38981.4,1696,0.64174026,6.0762053,188.26616,101.00053,18.4224,263.862,-5.23744,-7.01837,30.4586,25.368
1980-06-29 04:16:21,1,-8.94,1.06,-5.8,0.144222,1,1,52594.0,38795.7,1696,0.64174807,6.0761271,188.25491,101.00101,18.2229,265.581,-8.46581,-8.0662,29.4663,25.3075
1980-06-29 04:17:42,1,-8.4,0.95,-6.5,0.342783,1,1,54058.3,40427.4,1696,0.64175588,6.0760489,188.24367,101.00148,17.8151,266.295,-8.00263,-8.71573,29.8737,25.8343
1980-06-29 04:19:03,1,-6.375,9.525,-1.7,0.40466,1,1,58055.2,38333.8,1696,0.6417715,6.0758934,188.23291,101.00244,18.1907,272.308,18.1541,1.70248,30.9584,25.1564
1980-06-29 04:20:25,1,-7.95,7.45,-3.8,0.574456,1,1,49469.1,40629.2,1696,0.6417793,6.0758152,188.22168,101.00293,18.3158,265.732,10.7839,-1.36334,28.5775,25.8986
1980-06-29 04:21:46,1,-6.6,7.75,-5.6,0.193649,1,1,50996.5,40932.1,1696,0.64178711,6.075737,188.20653,101.0034,17.2336,272.599,11.7008,-10.1589,29.0154,25.995
1980-06-29 04:23:07,1,-9.9,4.825,-2.6,0.791754,1,1,52783.2,44124.5,1696,0.64180273,6.0755816,188.19577,101.00436,18.7437,258.548,0.772831,6.40715,29.5193,26.9897
1980-06-29 04:24:28,1,-9.2,4.18,-4.6,0.370945,1,1,49810.1,39611.1,1696,0.64181054,6.0755033,188.18452,101.00484,17.4275,261.964,-0.129717,-5.95287,28.6759,25.5721
1980-06-29 04:25:49,1,-6.98,5.52,-6.78,0.47833,1,1,54440.3,40562.7,1696,0.64181834,6.0754251,188.17328,101.00531,17.7362,268.277,4.46936,-14.4151,29.9791,25.8774
1980-06-29 04:28:31,1,-8.6,5.1,-5.1,0.0,1,1,51414.2,41796.3,1696,0.64184177,6.0751915,188.15128,101.00674,17.7344,264.806,4.51244,-6.51898,29.134,26.268
1980-06-29 04:29:52,1,-9.125,6.825,-2.275,0.394493,1,1,52241.5,40829.7,1696,0.64184958,6.0751133,188.13614,101.00723,17.9283,261.677,10.1806,-0.182807,29.3674,25.9625
1980-06-29 04:31:13,1,-9.3,5.2,-3.5,0.254951,1,1,50946.9,38158.7,1696,0.64186519,6.0749578,188.12537,101.00818,17.5766,259.93,4.4782,-2.43382,29.0013,25.0989
1980-06-29 04:32:34,1,-9.65,3.6,-4.1,0.259808,1,1,50156.1,40233.3,1696,0.641873,6.0748796,188.11414,101.00867,18.3294,262.842,-2.19564,-5.60585,28.7753,25.7722
1980-06-29 04:33:55,1,-8.4,5.175,-5.275,0.879631,1,1,43375.6,42798.8,1696,0.64188081,6.0748014,188.10289,101.00914,17.2303,259.984,-4.67726,-7.7569,26.7597,26.5811
1980-06-29 04:35:16,1,-8.8,4.6,-5.1,0.173205,1,1,49010.3,39700.8,1696,0.64189643,6.074646,188.09213,101.0101,17.916,264.5,2.06886,-9.71325,28.4447,25.601
1980-06-29 04:36:37,1,-9.1,4.85,-4.6,0.206155,1,1,52505.0,37958.7,1696,0.64190423,6.0745678,188.08089,101.01057,18.0127,264.411,3.23,-8.68981,29.4414,25.033
1980-06-29 04:37:58,1,-8.8,4.6,-5.1,0.173205,1,1,48655.6,39758.2,1696,0.64191204,6.0744896,188.06573,101.01105,17.6311,264.853,3.4328,-10.0032,28.3416,25.6196
1980-06-29 04:39:19,1,-9.15,4.95,-5.0,0.264575,1,1,52293.3,41633.7,1696,0.64192766,6.0743341,188.05498,101.01201,17.6912,263.404,3.02841,-8.98865,29.382,26.2168
1980-06-29 04:40:40,1,-8.85,5.2,-4.65,0.273861,1,1,52240.3,40346.5,1696,0.64193547,6.0742559,188.04375,101.0125,18.136,264.342,5.25676,-8.56578,29.3671,25.8084
1980-06-29 04:42:01,1,-8.65,6.675,-3.4,0.298957,1,1,52644.2,37987.4,1696,0.64195108,6.0740995,188.03297,101.01344,18.6657,265.479,10.5825,-4.35964,29.4804,25.0425
1980-06-29 04:43:22,1,-8.825,6.2,-3.9,0.277263,1,1,49010.8,38562.4,1696,0.64195889,6.0740223,188.02174,101.01393,17.9867,265.529,7.74456,-6.48259,28.4449,25.2313
1980-06-29 04:44:43,1,-8.85,5.975,-3.5,0.156125,1,1,49662.0,38709.6,1696,0.6419667,6.0739441,188.00659,101.0144,17.8966,263.775,8.63797,-6.01581,28.6332,25.2794
1980-06-29 04:46:04,1,-8.82,5.84,-4.22,0.24,1,1,49624.1,40146.0,1696,0.64198232,6.0737877,187.99583,101.01537,17.734,265.285,6.34895,-7.99657,28.6223,25.7442
1980-06-29 04:47:25,1,-9.15,4.5,-5.1,0.259808,1,1,39760.7,41082.9,1696,0.64199013,6.0737095,187.98459,101.01584,16.9965,263.572,5.12163,-9.55219,25.6203,26.0429
1980-06-29 04:48:46,1,-9.4,3.0,-5.6,0.2,1,1,46388.3,43489.1,1696,0.64199793,6.0736322,187.97334,101.01631,17.7359,262.986,-0.447536,-9.47296,27.6734,26.7946
1980-06-29 04:50:07,1,-8.825,4.65,-5.425,0.690109,1,1,49558.0,40912.3,1696,0.64201355,6.0734758,187.96259,101.01727,18.1696,266.208,0.59704,-11.1485,28.6032,25.9887
1980-06-29 04:51:28,1,-9.45,4.825,-4.9,0.298957,1,1,45175.3,41728.3,1696,0.64202136,6.0733976,187.95134,101.01775,18.0107,262.629,4.28713,-8.21519,27.3092,26.2466
1980-06-29 04:52:49,1,-9.15,6.025,-4.25,0.268095,1,1,42261.3,40862.3,1696,0.64202917,6.0733204,187.9362,101.01823,17.8042,263.876,6.31032,-7.65974,26.4137,25.9728
1980-06-29 04:54:10,1,-8.025,7.975,-3.1,0.7673,1,1,46763.3,36662.1,1696,0.64204478,6.073164,187.92543,101.01918,18.0846,267.323,16.3952,-4.92908,27.785,24.6018
1980-06-29 04:55:31,1,-8.95,7.025,-3.2,0.233184,1,1,48367.9,38594.4,1696,0.64205259,6.0730858,187.9142,101.01967,17.9042,262.907,10.9753,-5.78085,28.2577,25.2418
1980-06-29 04:56:52,1,-8.72,7.52,-3.02,0.452548,1,1,43090.3,37785.8,1696,0.64206046,6.0730085,187.90295,101.02014,17.7987,263.693,13.0435,-5.22937,26.6715,24.976
1980-06-29 04:58:13,1,-8.8,7.45,-2.8,0.342783,1,1,44597.5,36874.0,1696,0.64207602,6.0728521,187.8922,101.0211,17.8122,263.942,13.9058,-3.47583,27.134,24.6728
1980-06-29 04:59:34,1,-8.875,7.65,-2.7,0.156125,1,1,43706.2,37597.9,1696,0.64208388,6.0727739,187.88095,101.02158,17.9691,264.727,14.3214,-3.85419,26.8615,24.9138
1980-06-29 05:00:55,1,-9.1,7.5,-2.5,0.2,1,1,48332.2,38071.2,1696,0.64209169,6.0726957,187.86581,101.02206,18.3898,264.114,13.3707,-2.5841,28.2473,25.0701
1980-06-29 05:02:16,1,-8.5,8.2,-2.0,0.173205,1,1,43690.5,41571.0,1696,0.64210725,6.0725403,187.85504,101.02301,17.8015,266.253,15.1534,-0.866034,26.8566,26.1971
1980-06-29 05:03:37,1,-8.9,7.6,-2.0,0.282843,1,1,43879.3,41480.3,1696,0.64211506,6.0724621,187.8438,101.02348,17.8242,263.373,14.1831,0.126711,26.9146,26.1685
1980-06-29 05:04:58,1,-9.1,7.5,-2.3,0.0,1,1,42650.0,40460.9,1696,0.64212286,6.0723839,187.83255,101.02396,18.4263,263.211,14.2414,-0.125616,26.5349,25.8449
1980-06-29 05:06:19,1,-9.15,7.375,-1.8,0.290474,1,1,47635.1,39765.1,1696,0.64213848,6.0722284,187.82179,101.02492,18.7323,261.499,13.5343,0.220661,28.0428,25.6218
1980-06-29 05:07:40,1,-9.55,6.85,-1.2,0.244949,1,1,38158.6,38191.4,1696,0.64214629,6.0721502,187.80664,101.02539,17.0494,261.851,12.9435,2.89132,25.0989,25.1097
1980-06-29 05:09:01,1,-9.4,7.4,-0.7,0.0,1,1,42945.9,37941.8,1696,0.64216191,6.0719948,187.79588,101.02635,17.9862,261.24,12.3574,4.59802,26.6268,25.0275
1980-06-29 05:10:22,1,-9.175,7.475,-0.7,0.136931,1,1,42361.2,36765.7,1696,0.64216971,6.0719166,187.78464,101.02682,17.5937,261.872,13.052,4.47236,26.4449,24.6365
1980-06-29 05:11:43,1,-9.025,7.5,-0.1,0.349106,1,1,43049.6,40474.1,1696,0.64217752,6.0718384,187.77339,101.0273,17.3992,263.402,14.2741,5.41217,26.6589,25.8492
1980-06-29 05:13:04,1,-9.0,7.6,0.5,0.0,1,1,41725.7,37580.2,1696,0.64219314,6.0716829,187.76263,101.02826,17.6409,261.956,13.7354,9.6211,26.2458,24.9079
1980-06-29 05:14:25,1,-9.7,6.825,0.525,0.344601,1,1,42534.8,39353.5,1696,0.64220095,6.0716047,187.75139,101.02873,17.7817,261.484,12.2468,9.53457,26.499,25.4888
1980-06-29 05:15:46,1,-10.2,5.575,-1.9,0.294746,1,1,45848.3,41007.4,1696,0.64220876,6.0715265,187.73624,101.02921,18.4355,259.486,6.90707,0.49203,27.5118,26.0189
1980-06-29 05:17:07,1,-9.9,6.25,-0.7,0.259808,1,1,42723.4,40053.0,1696,0.64222431,6.0713711,187.72546,101.03015,18.5107,260.769,7.71758,4.07613,26.5577,25.7143
1980-06-29 05:18:28,1,-10.05,5.875,-1.1,0.233184,1,1,37382.0,39603.6,1696,0.64223212,6.0712929,187.71423,101.03064,17.4048,260.268,9.20386,4.0436,24.8421,25.5697
1980-06-29 05:19:49,1,-9.82,6.3,-1.08,0.393954,1,1,45114.3,39087.8,1696,0.64223993,6.0712147,187.70299,101.03111,18.3354,260.273,10.4764,5.18229,27.2907,25.4026
1980-06-29 05:21:10,1,-9.825,5.875,0.0,0.747496,1,1,43030.0,37850.3,1696,0.64225554,6.0710583,187.69221,101.03206,17.4362,259.718,6.11202,11.4307,26.6529,24.9973
1980-06-29 05:22:31,1,-9.825,6.075,-0.6,0.252488,1,1,42931.3,37209.6,1696,0.64226335,6.070981,187.67708,101.03255,17.4573,260.151,8.68692,4.65809,26.6223,24.7848
1980-06-29 05:23:52,1,-9.8,6.3,-0.2,0.4,1,1,45117.1,41591.3,1696,0.64227116,6.0709028,187.66583,101.03302,18.2586,259.284,10.2596,5.58113,27.2916,26.2035
1980-06-29 05:25:13,1,-9.5,6.45,0.725,0.298957,1,1,42203.5,40006.4,1696,0.64228678,6.0707464,187.65506,101.03397,17.9014,260.497,10.0967,11.5775,26.3956,25.6994
1980-06-29 05:26:34,1,-9.15,7.05,-0.3,0.43589,1,1,40854.9,39770.6,1696,0.64229459,6.0706692,187.64383,101.03445,17.9552,262.679,12.3605,4.78756,25.9705,25.6235
1980-06-29 05:27:55,1,-8.8,7.225,-0.3,0.438035,1,1,46708.0,37727.4,1696,0.64230239,6.070591,187.63258,101.03493,18.9078,263.217,12.9532,5.00524,27.7686,24.9567
1980-06-29 05:30:37,1,-9.38,6.6,-0.06,0.379473,1,1,49879.2,41179.6,1696,0.64232582,6.0703573,187.60667,101.03636,18.3706,262.034,11.6569,4.60909,28.6957,26.0735
1980-06-29 05:31:58,1,-9.4,6.5,0.1,0.0,1,1,47164.2,39992.1,1696,0.64233363,6.0702791,187.59543,101.03683,18.3956,261.222,10.1401,5.96313,27.9038,25.6948
1980-06-29 05:33:19,1,-9.7,5.9,-0.6,0.0,1,1,46026.7,41215.9,1696,0.64234918,6.0701227,187.58466,101.03778,18.0658,261.336,7.51512,4.01564,27.5653,26.085
1980-06-29 05:34:40,1,-9.65,5.825,-1.0,0.156125,1,1,41037.4,35789.2,1696,0.64235699,6.0700445,187.57341,101.03825,17.6955,260.402,8.19204,2.55396,26.0284,24.3071
1980-06-29 05:36:01,1,-9.6,5.95,-0.7,0.259808,1,1,48576.4,41860.8,1696,0.64237261,6.0698891,187.56265,101.03922,18.84,260.679,8.49016,3.89726,28.3185,26.2882
1980-06-29 05:37:22,1,-9.7,6.025,-0.5,0.471036,1,1,45706.5,37332.1,1696,0.64238042,6.0698109,187.55141,101.03969,17.9011,261.0,9.30319,3.43809,27.4693,24.8256
1980-06-29 05:38:43,1,-9.7,5.95,0.6,0.193649,1,1,45917.5,40645.1,1696,0.64238822,6.0697327,187.53625,101.04016,18.5692,261.322,7.83773,8.22616,27.5326,25.9037
1980-06-29 05:40:04,1,-9.74,6.34,-0.3,0.434511,1,1,38813.4,39205.8,1696,0.64240384,6.0695772,187.5255,101.04112,17.6943,261.459,10.6429,5.21624,25.3133,25.4409
1980-06-29 05:41:25,1,-9.54,6.34,0.16,0.266833,1,1,41586.0,38956.8,1696,0.64241165,6.069499,187.51425,101.0416,18.1089,261.179,9.49293,6.25146,26.2018,25.36
1980-06-29 05:42:46,1,-9.65,6.075,0.2,0.156125,1,1,40470.4,38463.3,1696,0.64241946,6.0694208,187.50301,101.04207,17.6223,258.746,7.40744,7.80695,25.848,25.1989
1980-06-29 05:44:07,1,-10.025,5.9,1.2,0.268095,1,1,39011.5,41972.4,1696,0.64243507,6.0692654,187.49225,101.04303,17.7751,260.119,7.09695,9.48281,25.3778,26.3233
1980-06-29 05:45:28,1,-9.8,6.3,1.2,0.2,1,1,49980.4,40409.1,1696,0.64244288,6.0691872,187.4771,101.0435,18.6602,260.016,9.56091,10.4741,28.7248,25.8284
1980-06-29 05:46:49,1,-10.05,6.0,1.3,0.269258,1,1,42576.6,37657.5,1696,0.64245069,6.069109,187.46585,101.04398,18.0871,260.828,6.23513,10.3109,26.512,24.9335
1980-06-29 05:48:10,1,-10.25,6.05,0.6,0.273861,1,1,44323.7,42332.6,1696,0.64246625,6.0689535,187.45509,101.04494,18.5251,258.66,8.59881,9.45891,27.0505,26.436
1980-06-29 05:49:31,1,-10.05,6.225,0.9,0.366572,1,1,38903.7,38040.8,1696,0.64247406,6.0688753,187.44385,101.04541,18.0817,259.793,9.79973,7.95354,25.3427,25.0601
1980-06-29 05:50:52,1,-10.3,5.125,1.8,0.238485,1,1,37382.5,39165.9,1696,0.64248186,6.0687971,187.4326,101.04588,17.8384,258.893,7.67,12.9459,24.8423,25.428
1980-06-29 05:52:13,1,-9.8,6.65,1.175,0.582559,1,1,39937.1,37728.0,1696,0.64249748,6.0686417,187.42184,101.04684,18.5513,259.645,10.3391,11.1718,25.6771,24.9569
1980-06-29 05:53:34,1,-9.95,5.925,-0.5,0.494343,1,1,44558.2,39931.9,1696,0.64250529,6.0685635,187.40669,101.04732,18.1573,260.054,9.57256,7.12241,27.122,25.6754
1980-06-29 05:54:55,1,-10.0,5.8,-1.0,0.0,1,1,42985.3,38374.5,1696,0.6425131,6.0684853,187.39545,101.04779,18.4435,260.892,7.15984,2.41501,26.639,25.1698
1980-06-29 06:03:10,1,-9.86667,5.24444,-2.68889,0.363793,1,1,46168.7,38733.0,1696,0.64256769,6.0679398,187.32457,101.05113,19.2537,261.781,1.58112,-3.55796,27.6078,25.2871
1980-06-29 06:03:11,1,-9.8375,5.3,-2.7,0.335177,1,1,43924.2,38502.9,1696,0.6425755,6.0678616,187.32504,101.05161,18.2654,262.477,5.24402,-1.63338,26.9284,25.2118
1980-06-29 06:03:13,1,-9.875,5.275,-2.6,0.385681,1,1,43211.6,39253.0,1696,0.64258331,6.0677834,187.32552,101.05208,19.0157,262.964,5.55352,-3.14488,26.709,25.4562
1980-06-29 06:03:41,1,-10.05,4.15,-3.1,0.540833,1,1,50495.5,38216.9,1696,0.64258331,6.0677834,187.32161,101.05208,18.4708,262.176,-0.0199924,-4.26821,28.8725,25.118
1980-06-29 06:04:22,1,-9.9125,4.925,-2.85,0.260708,1,1,40215.9,36648.0,1696,0.64259112,6.0677052,187.31427,101.05255,18.3496,262.406,4.47469,-1.80202,25.7666,24.5971
1980-06-29 06:05:02,1,-9.975,4.2,-3.5,0.516599,1,1,44104.8,40920.1,1696,0.64259893,6.067627,187.30693,101.05302,19.3246,261.944,3.35724,-3.18045,26.9837,25.9912
1980-06-29 06:05:43,1,-10.0625,4.9625,-2.5,0.812211,1,1,49134.1,38183.1,1696,0.64259893,6.067627,187.30302,101.05302,18.8382,261.04,5.14588,0.972528,28.4806,25.1069
1980-06-29 06:06:23,1,-9.8,4.72222,-3.17778,0.428319,1,1,45072.6,38597.5,1696,0.64260674,6.0675497,187.29568,101.0535,19.5604,262.232,3.95369,-4.24886,27.2781,25.2428
1980-06-29 06:07:04,1,-9.94444,4.72222,-3.4,0.315837,1,1,44646.3,39091.4,1696,0.64261448,6.0674715,187.29227,101.05399,19.1389,262.74,4.39574,-4.14774,27.1488,25.4038
1980-06-29 06:07:44,1,-10.075,4.45,-3.35,0.286138,1,1,43928.4,41701.8,1696,0.64261454,6.0674715,187.28445,101.05399,18.9516,261.27,2.99709,-3.89642,26.9296,26.2383